Time,TemperatureF,DewpointF,PressureIn,WindDirection,WindDirectionDegrees,WindSpeedMPH,WindSpeedGustMPH,Humidity,HourlyPrecipIn,Conditions,Clouds,dailyrainin,SoftwareType,DateUTC
2013-09-08 00:08:00,61.4,59.0,29.93,SE,129,0.0,0.0,92,0.00,,,0.00,weatherlink.com 1.10,2013-09-08 04:08:00,
2013-09-08 00:23:00,61.4,59.0,29.93,SE,129,0.0,0.0,92,0.00,,,0.00,weatherlink.com 1.10,2013-09-08 04:23:00,
2013-09-08 00:38:00,61.5,60.0,29.93,SE,129,0.0,0.0,93,0.00,,,0.00,weatherlink.com 1.10,2013-09-08 04:38:00,
2013-09-08 00:53:00,61.8,60.0,29.94,ENE,57,0.0,3.0,92,0.00,,,0.00,weatherlink.com 1.10,2013-09-08 04:53:00,
2013-09-08 01:08:00,62.2,60.0,29.96,NE,44,1.0,2.0,92,0.04,,,0.04,weatherlink.com 1.10,2013-09-08 05:08:00,
2013-09-08 01:23:00,61.2,60.0,29.95,SE,131,0.0,1.0,95,0.07,,,0.07,weatherlink.com 1.10,2013-09-08 05:23:00,
2013-09-08 01:38:00,61.1,60.0,29.95,SE,131,0.0,1.0,96,0.08,,,0.08,weatherlink.com 1.10,2013-09-08 05:38:00,
2013-09-08 01:53:00,61.1,60.0,29.94,SE,131,0.0,0.0,96,0.13,,,0.13,weatherlink.com 1.10,2013-09-08 05:53:00,
2013-09-08 02:08:00,61.0,60.0,29.94,ESE,118,0.0,1.0,97,0.09,,,0.13,weatherlink.com 1.10,2013-09-08 06:08:00,
2013-09-08 02:23:00,61.0,60.0,29.94,ENE,72,0.0,0.0,97,0.06,,,0.13,weatherlink.com 1.10,2013-09-08 06:23:00,
2013-09-08 02:38:00,60.9,60.0,29.93,ENE,73,0.0,1.0,97,0.05,,,0.13,weatherlink.com 1.10,2013-09-08 06:38:00,
2013-09-08 02:53:00,60.8,60.0,29.93,ENE,73,0.0,0.0,97,0.00,,,0.13,weatherlink.com 1.10,2013-09-08 06:53:00,
2013-09-08 03:08:00,60.8,60.0,29.92,ENE,73,0.0,1.0,98,0.00,,,0.13,weatherlink.com 1.10,2013-09-08 07:08:00,
2013-09-08 03:23:00,60.7,60.0,29.92,ENE,73,0.0,0.0,98,0.00,,,0.13,weatherlink.com 1.10,2013-09-08 07:23:00,
2013-09-08 03:38:00,60.5,60.0,29.91,ENE,73,0.0,0.0,98,0.00,,,0.13,weatherlink.com 1.10,2013-09-08 07:38:00,
2013-09-08 03:53:00,60.5,60.0,29.91,ENE,73,0.0,0.0,98,0.00,,,0.13,weatherlink.com 1.10,2013-09-08 07:53:00,
2013-09-08 04:08:00,60.1,60.0,29.91,ENE,73,0.0,0.0,98,0.00,,,0.13,weatherlink.com 1.10,2013-09-08 08:08:00,
2013-09-08 04:23:00,59.9,59.0,29.91,ENE,73,0.0,0.0,98,0.00,,,0.13,weatherlink.com 1.10,2013-09-08 08:23:00,
2013-09-08 04:38:00,59.9,59.0,29.91,ENE,73,0.0,0.0,98,0.00,,,0.13,weatherlink.com 1.10,2013-09-08 08:38:00,
2013-09-08 04:53:00,59.9,59.0,29.91,ENE,73,0.0,0.0,98,0.00,,,0.13,weatherlink.com 1.10,2013-09-08 08:53:00,
2013-09-08 05:08:00,59.9,59.0,29.90,ENE,73,0.0,1.0,98,0.00,,,0.13,weatherlink.com 1.10,2013-09-08 09:08:00,
2013-09-08 05:23:00,60.0,60.0,29.90,ENE,73,0.0,0.0,99,0.00,,,0.13,weatherlink.com 1.10,2013-09-08 09:23:00,
2013-09-08 05:38:00,59.9,60.0,29.90,ENE,73,0.0,0.0,99,0.00,,,0.13,weatherlink.com 1.10,2013-09-08 09:38:00,
2013-09-08 05:53:00,59.8,60.0,29.90,ENE,73,0.0,0.0,99,0.00,,,0.13,weatherlink.com 1.10,2013-09-08 09:53:00,
2013-09-08 06:08:00,59.9,60.0,29.91,ENE,73,0.0,0.0,99,0.00,,,0.13,weatherlink.com 1.10,2013-09-08 10:08:00,
2013-09-08 06:23:00,59.8,60.0,29.91,ENE,73,0.0,0.0,99,0.00,,,0.13,weatherlink.com 1.10,2013-09-08 10:23:00,
2013-09-08 06:38:00,59.9,60.0,29.91,ENE,73,0.0,1.0,99,0.00,,,0.13,weatherlink.com 1.10,2013-09-08 10:38:00,
2013-09-08 06:53:00,59.7,60.0,29.91,ENE,73,0.0,1.0,99,0.00,,,0.13,weatherlink.com 1.10,2013-09-08 10:53:00,
2013-09-08 07:09:00,59.7,60.0,29.91,ENE,73,0.0,0.0,99,0.00,,,0.13,weatherlink.com 1.10,2013-09-08 11:09:00,
2013-09-08 07:24:00,60.0,60.0,29.92,ENE,73,0.0,0.0,99,0.00,,,0.13,weatherlink.com 1.10,2013-09-08 11:24:00,
2013-09-08 07:39:00,60.2,60.0,29.92,ENE,73,0.0,0.0,99,0.00,,,0.13,weatherlink.com 1.10,2013-09-08 11:39:00,
2013-09-08 07:54:00,60.4,60.0,29.92,ENE,73,0.0,0.0,99,0.00,,,0.13,weatherlink.com 1.10,2013-09-08 11:54:00,
2013-09-08 08:09:00,61.1,61.0,29.92,ENE,73,0.0,0.0,99,0.00,,,0.13,weatherlink.com 1.10,2013-09-08 12:09:00,
2013-09-08 08:24:00,61.5,61.0,29.91,SSW,194,1.0,-999.0,99,-99.99,,,0.13,weatherlink.com 1.10,2013-09-08 12:24:00,
2013-09-08 08:39:00,62.7,63.0,29.92,SSW,194,0.0,0.0,99,0.00,,,0.13,weatherlink.com 1.10,2013-09-08 12:39:00,
2013-09-08 08:54:00,62.9,62.0,29.92,NW,323,0.0,0.0,98,0.00,,,0.13,weatherlink.com 1.10,2013-09-08 12:54:00,
2013-09-08 09:09:00,65.0,65.0,29.92,NW,323,0.0,0.0,98,0.00,,,0.13,weatherlink.com 1.10,2013-09-08 13:09:00,
2013-09-08 09:24:00,66.3,64.0,29.92,NW,323,0.0,0.0,91,0.00,,,0.13,weatherlink.com 1.10,2013-09-08 13:24:00,
2013-09-08 09:39:00,68.2,65.0,29.92,NW,323,0.0,0.0,89,0.00,,,0.13,weatherlink.com 1.10,2013-09-08 13:39:00,
2013-09-08 09:54:00,69.9,65.0,29.92,West,261,0.0,2.0,85,0.00,,,0.13,weatherlink.com 1.10,2013-09-08 13:54:00,
2013-09-08 10:09:00,70.5,66.0,29.92,WSW,246,1.0,3.0,84,0.00,,,0.13,weatherlink.com 1.10,2013-09-08 14:09:00,
2013-09-08 10:24:00,71.4,65.0,29.92,North,353,0.0,5.0,80,0.00,,,0.13,weatherlink.com 1.10,2013-09-08 14:24:00,
2013-09-08 10:39:00,71.3,65.0,29.93,WNW,303,2.0,5.0,79,0.00,,,0.13,weatherlink.com 1.10,2013-09-08 14:39:00,
2013-09-08 10:54:00,71.0,65.0,29.93,West,260,0.0,5.0,81,0.00,,,0.13,weatherlink.com 1.10,2013-09-08 14:54:00,
2013-09-08 11:09:00,71.2,64.0,29.92,WSW,250,1.0,6.0,79,0.00,,,0.13,weatherlink.com 1.10,2013-09-08 15:09:00,
2013-09-08 11:24:00,71.1,64.0,29.92,SW,220,2.0,5.0,79,0.00,,,0.13,weatherlink.com 1.10,2013-09-08 15:24:00,
2013-09-08 11:39:00,71.3,65.0,29.92,SW,231,0.0,2.0,80,0.00,,,0.13,weatherlink.com 1.10,2013-09-08 15:39:00,
2013-09-08 11:54:00,71.4,65.0,29.92,West,265,1.0,3.0,79,0.00,,,0.00,weatherlink.com 1.10,2013-09-08 15:54:00,
2013-09-08 12:09:00,71.6,65.0,29.92,West,280,0.0,1.0,80,0.00,,,0.00,weatherlink.com 1.10,2013-09-08 16:09:00,
2013-09-08 12:24:00,71.9,65.0,29.92,WNW,287,0.0,2.0,80,0.00,,,0.00,weatherlink.com 1.10,2013-09-08 16:24:00,
2013-09-08 12:39:00,72.5,65.0,29.92,North,358,2.0,4.0,78,0.00,,,0.00,weatherlink.com 1.10,2013-09-08 16:39:00,
2013-09-08 12:54:00,73.6,66.0,29.92,NNW,335,0.0,1.0,77,0.00,,,0.00,weatherlink.com 1.10,2013-09-08 16:54:00,
2013-09-08 13:09:00,74.2,66.0,29.92,ENE,63,1.0,4.0,76,0.00,,,0.00,weatherlink.com 1.10,2013-09-08 17:09:00,
2013-09-08 13:24:00,73.1,66.0,29.93,North,358,3.0,6.0,78,0.00,,,0.00,weatherlink.com 1.10,2013-09-08 17:24:00,
2013-09-08 13:39:00,72.9,66.0,29.93,North,9,1.0,4.0,79,0.00,,,0.00,weatherlink.com 1.10,2013-09-08 17:39:00,
2013-09-08 13:54:00,72.5,66.0,29.93,NE,51,0.0,6.0,80,0.00,,,0.00,weatherlink.com 1.10,2013-09-08 17:54:00,
2013-09-08 14:09:00,73.4,67.0,29.93,NNE,21,0.0,3.0,79,0.00,,,0.00,weatherlink.com 1.10,2013-09-08 18:09:00,
2013-09-08 14:24:00,75.6,67.0,29.93,NW,326,0.0,3.0,75,0.00,,,0.00,weatherlink.com 1.10,2013-09-08 18:24:00,
2013-09-08 14:39:00,77.7,68.0,29.92,NNW,346,1.0,3.0,71,0.00,,,0.00,weatherlink.com 1.10,2013-09-08 18:39:00,
2013-09-08 14:54:00,78.2,66.0,29.92,East,97,0.0,8.0,67,0.00,,,0.00,weatherlink.com 1.10,2013-09-08 18:54:00,
2013-09-08 15:09:00,78.6,66.0,29.91,NW,325,1.0,5.0,66,0.00,,,0.00,weatherlink.com 1.10,2013-09-08 19:09:00,
2013-09-08 15:24:00,77.4,66.0,29.92,NNW,335,0.0,9.0,69,0.00,,,0.00,weatherlink.com 1.10,2013-09-08 19:24:00,
2013-09-08 15:39:00,77.6,66.0,29.92,North,349,1.0,3.0,67,0.00,,,0.00,weatherlink.com 1.10,2013-09-08 19:39:00,
2013-09-08 15:54:00,78.0,66.0,29.91,North,4,4.0,8.0,67,0.00,,,0.00,weatherlink.com 1.10,2013-09-08 19:54:00,
2013-09-08 16:09:00,76.9,65.0,29.92,North,8,3.0,7.0,67,0.00,,,0.00,weatherlink.com 1.10,2013-09-08 20:09:00,
2013-09-08 16:24:00,77.1,66.0,29.91,NNE,14,0.0,6.0,68,0.00,,,0.00,weatherlink.com 1.10,2013-09-08 20:24:00,
2013-09-08 16:39:00,76.9,65.0,29.92,NE,36,1.0,8.0,66,0.00,,,0.00,weatherlink.com 1.10,2013-09-08 20:39:00,
2013-09-08 16:54:00,76.4,65.0,29.92,NE,44,1.0,6.0,68,0.00,,,0.00,weatherlink.com 1.10,2013-09-08 20:54:00,
2013-09-08 17:09:00,77.3,64.0,29.92,NNE,25,1.0,9.0,63,0.00,,,0.00,weatherlink.com 1.10,2013-09-08 21:09:00,
2013-09-08 17:24:00,77.3,64.0,29.93,NNE,20,3.0,7.0,63,0.00,,,0.00,weatherlink.com 1.10,2013-09-08 21:24:00,
2013-09-08 17:39:00,77.4,63.0,29.92,North,355,1.0,7.0,62,0.00,,,0.00,weatherlink.com 1.10,2013-09-08 21:39:00,
2013-09-08 17:54:00,78.5,63.0,29.92,NNW,332,0.0,5.0,60,0.00,,,0.00,weatherlink.com 1.10,2013-09-08 21:54:00,
2013-09-08 18:09:00,76.8,63.0,29.92,NNE,13,1.0,5.0,63,0.00,,,0.00,weatherlink.com 1.10,2013-09-08 22:09:00,
2013-09-08 18:24:00,76.1,62.0,29.93,NNE,19,2.0,6.0,62,0.00,,,0.00,weatherlink.com 1.10,2013-09-08 22:24:00,
2013-09-08 18:40:00,75.3,63.0,29.94,ENE,75,1.0,7.0,66,0.00,,,0.00,weatherlink.com 1.10,2013-09-08 22:40:00,
2013-09-08 18:55:00,74.5,63.0,29.94,NNE,20,0.0,5.0,68,0.00,,,0.00,weatherlink.com 1.10,2013-09-08 22:55:00,
2013-09-08 19:10:00,73.2,63.0,29.95,North,8,1.0,2.0,70,0.00,,,0.00,weatherlink.com 1.10,2013-09-08 23:10:00,
2013-09-08 19:25:00,71.6,63.0,29.95,North,11,0.0,2.0,75,0.00,,,0.00,weatherlink.com 1.10,2013-09-08 23:25:00,
2013-09-08 19:40:00,68.9,63.0,29.95,NNE,12,0.0,1.0,80,0.00,,,0.00,weatherlink.com 1.10,2013-09-08 23:40:00,
2013-09-08 19:55:00,67.0,62.0,29.95,NNE,12,0.0,1.0,85,0.00,,,0.00,weatherlink.com 1.10,2013-09-08 23:55:00,
2013-09-08 20:11:00,65.1,62.0,29.96,NNE,12,0.0,1.0,89,0.00,,,0.00,weatherlink.com 1.10,2013-09-09 00:11:00,
2013-09-08 20:25:00,64.0,62.0,29.96,NE,52,0.0,1.0,92,0.00,,,0.00,weatherlink.com 1.10,2013-09-09 00:25:00,
2013-09-08 20:40:00,63.1,61.0,29.97,NE,52,0.0,0.0,93,0.00,,,0.00,weatherlink.com 1.10,2013-09-09 00:40:00,
2013-09-08 20:55:00,62.4,61.0,29.98,NE,52,0.0,0.0,94,0.00,,,0.00,weatherlink.com 1.10,2013-09-09 00:55:00,
2013-09-08 21:10:00,61.7,60.0,29.99,NE,52,0.0,0.0,95,0.00,,,0.00,weatherlink.com 1.10,2013-09-09 01:10:00,
2013-09-08 21:25:00,61.2,60.0,29.99,NE,53,0.0,1.0,96,0.00,,,0.00,weatherlink.com 1.10,2013-09-09 01:25:00,
2013-09-08 21:40:00,60.7,60.0,29.99,NE,53,0.0,0.0,96,0.00,,,0.00,weatherlink.com 1.10,2013-09-09 01:40:00,
2013-09-08 21:55:00,60.3,60.0,30.00,NE,53,0.0,1.0,97,0.00,,,0.00,weatherlink.com 1.10,2013-09-09 01:55:00,
2013-09-08 22:10:00,59.9,59.0,30.00,NE,53,0.0,0.0,97,0.00,,,0.00,weatherlink.com 1.10,2013-09-09 02:10:00,
2013-09-08 22:25:00,59.5,59.0,30.00,NE,52,0.0,0.0,97,0.00,,,0.00,weatherlink.com 1.10,2013-09-09 02:25:00,
2013-09-08 22:40:00,59.3,59.0,30.01,ENE,59,0.0,3.0,98,0.00,,,0.00,weatherlink.com 1.10,2013-09-09 02:40:00,
2013-09-08 22:55:00,59.4,59.0,30.01,NNE,27,1.0,2.0,98,0.00,,,0.00,weatherlink.com 1.10,2013-09-09 02:55:00,
2013-09-08 23:10:00,59.2,59.0,30.02,ESE,111,0.0,3.0,98,0.00,,,0.00,weatherlink.com 1.10,2013-09-09 03:10:00,
2013-09-08 23:25:00,59.0,58.0,30.02,NNE,32,0.0,4.0,97,0.00,,,0.00,weatherlink.com 1.10,2013-09-09 03:25:00,
2013-09-08 23:40:00,58.8,58.0,30.03,ENE,75,0.0,4.0,97,0.00,,,0.00,weatherlink.com 1.10,2013-09-09 03:40:00,
2013-09-08 23:55:00,58.6,58.0,30.03,NE,56,0.0,3.0,96,0.00,,,0.00,weatherlink.com 1.10,2013-09-09 03:55:00,